time_stamp(utc),avg(mph),gust(mph),direction(deg),12m_air_temp(f),sonic_u(cm/s),sonic_v(cm/s),sonic_w(cm/s),pressure,2m_air_temp(f),pyranometer(W/m^2)
"2021-03-16 00:02:39+00",7.4,8.4,,37.7,-216,240,9,1027.07,35.3,0
"2021-03-16 00:07:39+00",7.9,8.9,,37.6,-260,234,17,1027.03,35.3,0
"2021-03-16 00:12:39+00",8.3,9.3,,37.6,-260,259,10,1027.02,35.4,0
"2021-03-16 00:17:39+00",8.5,9.5,,37.7,-256,273,13,1026.92,35.6,0
"2021-03-16 00:22:39+00",8.6,9.6,,37.8,-250,280,21,1027,35.9,0
"2021-03-16 00:27:39+00",6.9,7.9,,37.6,-220,216,8,1027.06,36,0
"2021-03-16 00:32:39+00",7.7,8.7,,37.6,-197,278,9,1027.16,36,0
"2021-03-16 00:37:39+00",6.5,7.5,,37.6,-189,209,14,1027.1,35.9,0
"2021-03-16 00:42:39+00",7.4,8.4,,37.5,-247,230,12,1027.07,35.7,0
"2021-03-16 00:47:39+00",9.0,11.0,,37.7,-311,237,25,1027.14,35.7,0
"2021-03-16 00:52:39+00",8.3,9.3,,37.8,-284,246,14,1027.18,36.1,0
"2021-03-16 00:57:39+00",6.2,7.2,,37.6,-178,207,14,1027.16,36.2,0
"2021-03-16 01:02:39+00",7.4,8.4,,37.6,-180,268,11,1027.09,35.9,0
"2021-03-16 01:07:39+00",7.6,8.6,,37.6,-206,263,8,1027.09,35.6,0
"2021-03-16 01:12:39+00",8.9,9.9,,37.4,-256,291,8,1027.12,35.5,0
"2021-03-16 01:17:39+00",6.8,7.8,,37.4,-209,212,10,1027.24,35.5,0
"2021-03-16 01:22:39+00",6.5,7.5,,37.1,-240,154,18,1027.2,35.4,0
"2021-03-16 01:27:39+00",8.4,9.4,,37.1,-303,225,22,1027.12,35.4,0
"2021-03-16 01:32:39+00",6.8,7.8,,37.2,-230,193,21,1027.2,35.4,0
"2021-03-16 01:37:39+00",4.3,4.3,,37.1,-115,142,6,1027.23,35.4,0
"2021-03-16 01:42:39+00",6.2,7.2,,37,-151,228,9,1027.19,35.1,0
"2021-03-16 01:47:39+00",7.7,8.7,,36.9,-158,293,11,1027.06,34.7,0
"2021-03-16 01:52:39+00",7.1,7.1,,36.8,-141,271,6,1027.1,34.3,0
"2021-03-16 01:57:39+00",5.2,5.2,,36.6,-140,175,7,1027.42,33.9,0
"2021-03-16 02:02:39+00",5.6,6.6,,36.6,-161,177,4,1027.41,33.6,0
"2021-03-16 02:07:39+00",6.7,7.7,,36.6,-184,228,15,1027.42,33.5,0
"2021-03-16 02:12:39+00",8.4,8.4,,36.6,-251,267,10,1027.44,33.6,0
"2021-03-16 02:17:39+00",5.5,6.5,,36.5,-168,164,14,1027.51,33.8,0
"2021-03-16 02:22:39+00",5.2,6.2,,36.5,-132,170,5,1027.42,33.8,0
"2021-03-16 02:27:39+00",7.4,8.4,,36.6,-195,258,11,1027.31,33.8,0
"2021-03-16 02:32:39+00",7.3,8.3,,36.6,-221,234,11,1027.47,33.7,0
"2021-03-16 02:37:39+00",5.9,6.9,,36.6,-168,192,15,1027.52,33.8,0
"2021-03-16 02:42:39+00",6.7,7.7,,36.7,-189,225,16,1027.69,33.9,0
"2021-03-16 02:47:39+00",7.2,8.2,,36.7,-213,227,10,1027.71,33.9,0
"2021-03-16 02:52:39+00",5.9,6.9,,36.6,-197,180,14,1027.92,34,0
"2021-03-16 02:57:39+00",6.7,7.7,,36.6,-235,180,23,1027.92,34.1,0
"2021-03-16 03:02:39+00",9.2,10.2,,36.7,-314,266,21,1027.9,34.3,0
"2021-03-16 03:07:39+00",8.2,9.2,,36.7,-268,246,20,1027.95,34.7,0
"2021-03-16 03:12:39+00",6.8,7.8,,36.6,-236,181,19,1028.07,34.8,0
"2021-03-16 03:17:39+00",8.9,9.9,,36.6,-273,289,24,1028,34.8,0
"2021-03-16 03:22:39+00",8.5,9.5,,36.6,-267,257,18,1027.91,34.8,0
"2021-03-16 03:27:39+00",7.4,8.4,,36.5,-245,247,14,1028.02,34.8,0
"2021-03-16 03:32:39+00",9.2,10.2,,36.5,-258,318,16,1027.79,34.8,0
"2021-03-16 03:37:39+00",9.4,9.4,,36.3,-272,317,23,1027.8,34.6,0
"2021-03-16 03:42:39+00",9.1,10.1,,36.1,-270,300,22,1027.93,34.5,0
"2021-03-16 03:47:39+00",8.7,9.7,,35.8,-255,298,11,1028.07,34.4,0
"2021-03-16 03:52:39+00",8.0,9.0,,35.3,-273,219,24,1028.16,34.3,0
"2021-03-16 03:57:39+00",9.3,10.3,,35.3,-270,314,13,1028.04,34.2,0
"2021-03-16 04:02:39+00",9.0,10.0,,35.1,-251,304,16,1028.12,34,0
"2021-03-16 04:07:39+00",7.3,8.3,,34.8,-154,277,7,1028.12,33.8,0
"2021-03-16 04:12:39+00",8.8,9.8,,34,-155,360,11,1027.85,33.4,0
"2021-03-16 04:17:39+00",7.8,8.8,,33.6,-129,318,4,1027.84,33,0
"2021-03-16 04:22:39+00",5.8,6.8,,33.4,-87,236,1,1027.97,32.8,0
"2021-03-16 04:27:39+00",7.6,8.6,,33.2,-133,304,5,1027.95,32.5,0
"2021-03-16 04:32:39+00",8.3,10.3,,32.9,-119,342,5,1027.87,32.3,0
"2021-03-16 04:37:39+00",7.1,8.1,,32.7,-64,307,2,1028,32,0
"2021-03-16 04:42:39+00",7.2,8.2,,32.6,2,314,1,1027.85,31.8,0
"2021-03-16 04:47:39+00",8.7,9.7,,32.8,-10,375,13,1027.86,31.6,0
"2021-03-16 04:52:39+00",7.4,8.4,,33.1,24,315,-1,1027.69,31.6,0
"2021-03-16 04:57:39+00",7.4,8.4,,33.5,66,296,4,1027.61,31.8,0
"2021-03-16 05:02:39+00",8.8,9.8,,33.5,57,379,3,1027.28,32.1,0
"2021-03-16 05:07:39+00",5.8,7.8,,33.4,106,216,-2,1027.49,32.3,0
"2021-03-16 05:12:39+00",7.6,8.6,,33.4,135,299,0,1027.52,32.3,0
"2021-03-16 05:17:39+00",9.1,11.1,,33.6,49,380,7,1027.41,32.3,0
"2021-03-16 05:22:39+00",7.4,8.4,,33.8,105,299,5,1027.49,32.6,0
"2021-03-16 05:27:39+00",9.5,11.5,,34,97,394,-3,1027.46,32.8,0
"2021-03-16 05:32:39+00",8.4,10.4,,34.1,97,341,-1,1027.27,33,0
"2021-03-16 05:37:39+00",7.2,8.2,,34,109,287,4,1027.34,33,0
"2021-03-16 05:42:39+00",7.3,8.3,,33.8,65,291,1,1027.32,32.9,0
"2021-03-16 05:47:39+00",8.3,10.3,,33.7,88,328,-6,1027.39,32.8,0
"2021-03-16 05:52:39+00",6.8,8.8,,33.7,77,269,1,1027.57,32.8,0
"2021-03-16 05:57:39+00",6.7,7.7,,33.8,93,269,0,1027.57,32.8,0
"2021-03-16 06:02:39+00",6.2,7.2,,33.7,57,248,1,1027.56,32.6,0
"2021-03-16 06:07:39+00",8.3,9.3,,33.7,137,326,0,1027.38,32.6,0
"2021-03-16 06:12:39+00",6.9,7.9,,33.7,145,255,0,1027.48,32.6,0
"2021-03-16 06:17:39+00",6.3,7.3,,33.6,84,247,0,1027.35,32.6,0
"2021-03-16 06:22:39+00",6.1,7.1,,33.6,13,258,4,1027.27,32.6,0
"2021-03-16 06:27:39+00",6.6,7.6,,33.7,32,276,5,1027.32,32.6,0
"2021-03-16 06:32:39+00",4.9,5.9,,33.7,3,206,3,1027.39,32.6,0
"2021-03-16 06:37:39+00",4.9,5.9,,33.7,-5,205,-3,1027.29,32.6,0
"2021-03-16 06:42:39+00",5.5,6.5,,33.6,11,234,-3,1027.1,32.6,0
"2021-03-16 06:47:39+00",6.5,7.5,,33.5,-60,277,4,1027.08,32.6,0
"2021-03-16 06:52:39+00",4.4,5.4,,33.4,-10,179,3,1026.97,32.6,0
"2021-03-16 06:57:39+00",3.8,4.8,,33.3,-4,160,-1,1027.05,32.5,0
"2021-03-16 07:02:39+00",5.0,6.0,,33.1,-48,210,6,1026.83,32.4,0
"2021-03-16 07:07:39+00",4.5,5.5,,33.1,45,170,0,1026.94,32.4,0
"2021-03-16 07:12:39+00",5.7,6.7,,33.3,71,226,5,1026.76,32.3,0
"2021-03-16 07:17:39+00",6.9,7.9,,33.3,90,279,-6,1026.54,32.4,0
"2021-03-16 07:22:39+00",6.8,7.8,,33.3,84,271,-4,1026.59,32.4,0
"2021-03-16 07:27:39+00",6.2,7.2,,33.4,85,255,-2,1026.79,32.6,0
"2021-03-16 07:32:39+00",5.6,6.6,,33.4,59,221,1,1026.7,32.6,0
"2021-03-16 07:37:39+00",5.8,6.8,,33.4,41,238,2,1026.5,32.6,0
"2021-03-16 07:42:39+00",6.2,7.2,,33.4,118,240,-1,1026.58,32.7,0
"2021-03-16 07:47:39+00",7.1,8.1,,33.5,135,273,-2,1026.55,32.7,0
"2021-03-16 07:52:39+00",8.5,8.5,,33.5,178,314,1,1026.33,32.7,0
"2021-03-16 07:57:39+00",7.0,8.0,,33.5,169,238,5,1026.23,32.8,0
"2021-03-16 08:02:39+00",6.7,8.7,,33.7,200,203,15,1026.35,33,0
"2021-03-16 08:07:39+00",8.5,9.5,,33.7,158,338,-2,1026.31,33.1,0
"2021-03-16 08:12:39+00",6.0,7.0,,33.6,53,248,-4,1026.42,33,0
"2021-03-16 08:17:39+00",8.0,9.0,,33.5,133,315,0,1026.26,32.9,0
"2021-03-16 08:22:39+00",9.0,10.0,,33.4,227,295,5,1026.05,32.8,0
"2021-03-16 08:27:39+00",8.5,9.5,,33.5,247,271,19,1025.76,32.9,0
"2021-03-16 08:32:39+00",7.7,8.7,,33.5,239,231,16,1025.88,33,0
"2021-03-16 08:37:39+00",7.0,8.0,,33.6,192,218,10,1026.12,33.1,0
"2021-03-16 08:42:39+00",7.4,8.4,,33.6,194,240,5,1026.05,32.9,0
"2021-03-16 08:47:39+00",7.9,8.9,,33.5,198,260,2,1026.05,32.8,0
"2021-03-16 08:52:39+00",9.3,10.3,,33.4,240,301,1,1025.89,32.6,0
"2021-03-16 08:57:39+00",9.1,10.1,,33.4,244,292,5,1025.96,32.6,0
"2021-03-16 09:02:39+00",9.5,10.5,,33.5,240,312,0,1025.92,32.7,0
"2021-03-16 09:07:39+00",9.9,10.9,,33.9,310,299,16,1025.89,32.9,0
"2021-03-16 09:12:39+00",9.5,10.5,,34.1,352,235,21,1025.87,33.1,0
"2021-03-16 09:17:39+00",10.2,11.2,,34.6,348,285,15,1025.92,33.5,0
"2021-03-16 09:22:39+00",8.9,9.9,,34.6,335,210,19,1026.04,33.7,0
"2021-03-16 09:27:39+00",8.9,9.9,,34.6,308,247,17,1025.97,33.8,0
"2021-03-16 09:32:39+00",9.2,10.2,,34.6,325,250,12,1026,34,0
"2021-03-16 09:37:39+00",8.7,10.7,,34.6,325,200,28,1026.13,34,0
"2021-03-16 09:42:39+00",8.2,9.2,,34.6,268,239,20,1026.06,34.1,0
"2021-03-16 09:47:39+00",7.1,8.1,,34.8,284,146,21,1026.11,34.2,0
"2021-03-16 09:52:39+00",6.1,7.1,,34.8,218,158,12,1026.26,34.2,0
"2021-03-16 09:57:39+00",6.2,7.2,,34.9,138,207,-1,1026.46,34.3,0
"2021-03-16 10:02:39+00",3.5,3.5,,34.8,55,130,-2,1026.57,34.3,0
"2021-03-16 10:07:39+00",3.1,4.1,,34.6,71,96,0,1026.49,34.2,0
"2021-03-16 10:12:39+00",2.8,3.8,,34.6,60,88,-1,1026.34,34.1,0
"2021-03-16 10:17:39+00",2.8,3.8,,34.6,53,92,1,1026.44,34,0
"2021-03-16 10:22:39+00",5.3,6.3,,34.7,165,150,10,1026.05,33.9,0
"2021-03-16 10:27:39+00",3.9,4.9,,34.9,123,106,9,1026.17,34,0
"2021-03-16 10:32:39+00",4.7,5.7,,34.9,107,160,2,1026.03,34,0
"2021-03-16 10:37:39+00",6.8,8.8,,35.2,279,95,44,1026.02,34.1,0
"2021-03-16 10:42:39+00",9.8,11.8,,36,433,113,29,1026.21,34.6,0
"2021-03-16 10:47:39+00",11.4,13.4,,36,513,69,33,1026.09,35.1,0
"2021-03-16 10:52:39+00",10.1,11.1,,36,451,50,46,1026.17,35.3,0
"2021-03-16 10:57:39+00",9.3,11.3,,35.9,418,4,27,1026.23,35.4,0
"2021-03-16 11:02:39+00",12.2,13.2,,35.9,544,74,28,1026.01,35.5,0
"2021-03-16 11:07:39+00",10.1,11.1,,35.8,444,14,34,1025.91,35.5,0
"2021-03-16 11:12:39+00",10.5,11.5,,35.7,481,-55,34,1025.84,35.5,0
"2021-03-16 11:17:39+00",11.1,12.1,,35.7,498,8,32,1025.93,35.6,0
"2021-03-16 11:22:39+00",8.8,9.8,,35.7,376,-63,24,1025.74,35.5,0
"2021-03-16 11:27:39+00",9.5,11.5,,35.7,420,-45,22,1025.83,35.6,0
"2021-03-16 11:32:39+00",10.7,11.7,,35.7,473,-62,33,1025.77,35.6,0
"2021-03-16 11:37:39+00",12.4,14.4,,35.7,552,-72,30,1025.72,35.6,0
"2021-03-16 11:42:39+00",12.1,14.1,,35.8,536,-49,10,1025.9,35.6,0
"2021-03-16 11:47:39+00",13.3,14.3,,35.8,582,-136,1,1025.89,35.6,0
"2021-03-16 11:52:39+00",8.5,10.5,,35.8,376,-55,40,1026.01,35.7,0
"2021-03-16 11:57:39+00",12.5,14.5,,35.7,550,-21,28,1025.89,35.7,0
"2021-03-16 12:02:39+00",13.1,15.1,,35.7,592,-72,15,1025.98,35.7,0
"2021-03-16 12:07:39+00",12.1,15.1,,35.7,555,-25,23,1025.99,35.8,0
"2021-03-16 12:12:39+00",10.4,13.4,,35.7,467,-98,21,1026.15,35.8,0
"2021-03-16 12:17:39+00",11.5,13.5,,35.8,502,-118,6,1025.88,35.8,0
"2021-03-16 12:22:39+00",11.7,13.7,,35.7,510,-137,14,1025.93,35.9,0
"2021-03-16 12:27:39+00",11.3,12.3,,35.9,472,-186,23,1026.12,36,0
"2021-03-16 12:32:39+00",13.5,15.5,,35.9,608,-126,1,1026.08,36.1,0
"2021-03-16 12:37:39+00",12.2,15.2,,36,558,-78,18,1026,36.3,0
"2021-03-16 12:42:39+00",12.1,14.1,,36,543,-35,28,1026.05,36.5,0
"2021-03-16 12:47:39+00",12.2,13.2,,36.2,530,-149,34,1026.08,36.6,0
"2021-03-16 12:52:39+00",12.5,13.5,,36,548,-102,16,1025.94,36.6,0
"2021-03-16 12:57:39+00",11.3,13.3,,36,491,-140,14,1026.27,36.5,0
"2021-03-16 13:02:39+00",12.0,13.0,,36,505,-182,-12,1026.2,36.5,0
"2021-03-16 13:07:39+00",12.1,13.1,,36.1,536,-58,9,1026.01,36.6,0
"2021-03-16 13:12:39+00",11.9,13.9,,36,522,-60,20,1026,36.6,0
"2021-03-16 13:17:39+00",11.4,13.4,,36.1,485,-172,20,1025.96,36.7,0
"2021-03-16 13:22:39+00",12.2,13.2,,36.1,531,-153,2,1026.1,36.7,0
"2021-03-16 13:27:39+00",11.0,12.0,,36,480,-135,-11,1026.09,36.7,0
"2021-03-16 13:32:39+00",11.6,12.6,,36.1,520,-55,30,1026.13,36.8,0
"2021-03-16 13:37:39+00",12.1,13.1,,36.2,528,-81,23,1026.12,36.8,0
"2021-03-16 13:42:39+00",12.5,14.5,,36.2,533,-124,4,1026.15,36.7,0
"2021-03-16 13:47:39+00",12.0,14.0,,36.4,541,-70,11,1026.08,36.8,0
"2021-03-16 13:52:39+00",10.6,12.6,,36.3,462,-70,2,1026.23,36.8,0
"2021-03-16 13:57:39+00",10.2,11.2,,36.3,454,-84,15,1026.18,36.8,0
"2021-03-16 14:02:39+00",12.1,14.1,,36.3,544,-40,21,1026.14,37,0
"2021-03-16 14:07:39+00",11.4,14.4,,36.4,515,-27,32,1026.17,37.1,0
"2021-03-16 14:12:39+00",10.3,11.3,,36.5,443,-121,39,1026.16,37.3,0
"2021-03-16 14:17:39+00",10.9,13.9,,36.6,494,-63,26,1026.22,37.5,0
"2021-03-16 14:22:39+00",12.7,14.7,,36.4,551,-134,-9,1026.11,37.4,0
"2021-03-16 14:27:39+00",12.7,13.7,,36.5,570,15,30,1026.02,37.4,0
"2021-03-16 14:32:39+00",11.6,12.6,,36.6,514,-57,16,1025.97,37.4,0
"2021-03-16 14:37:39+00",11.6,14.6,,36.6,540,-10,35,1025.91,37.3,0
"2021-03-16 14:42:39+00",11.1,12.1,,36.6,498,-83,27,1025.9,37.3,0
"2021-03-16 14:47:39+00",13.5,16.5,,36.6,597,5,29,1025.97,37.3,0
"2021-03-16 14:52:39+00",12.1,13.1,,36.7,546,-20,65,1025.73,37.3,0
"2021-03-16 14:57:39+00",13.4,14.4,,36.6,605,-80,21,1025.73,37.3,0
"2021-03-16 15:02:39+00",14.1,15.1,,36.5,635,-8,4,1025.63,37.2,0
"2021-03-16 15:07:39+00",10.3,11.3,,36.9,463,-66,34,1025.77,37.3,0
"2021-03-16 15:12:39+00",11.9,12.9,,36.7,490,-199,-1,1025.82,37.4,0
"2021-03-16 15:17:39+00",10.4,11.4,,36.9,452,-135,-6,1025.75,37.5,0
"2021-03-16 15:22:39+00",12.9,13.9,,36.9,561,-161,1,1025.64,37.7,0
"2021-03-16 15:27:39+00",11.5,13.5,,36.9,520,-91,17,1025.68,37.6,0
"2021-03-16 15:32:39+00",12.4,14.4,,37,566,-79,1,1025.65,37.8,0
"2021-03-16 15:37:39+00",10.6,12.6,,37.1,467,-61,36,1025.54,38,0
"2021-03-16 15:42:39+00",11.7,13.7,,36.9,520,-54,16,1025.58,37.8,0
"2021-03-16 15:47:39+00",12.7,14.7,,36.9,573,-71,26,1025.38,37.6,0
"2021-03-16 15:52:39+00",11.0,12.0,,36.8,494,-33,15,1025.59,37.6,0
"2021-03-16 15:57:39+00",11.1,12.1,,37.1,495,-69,30,1025.52,37.7,0
"2021-03-16 16:02:39+00",12.6,13.6,,37.1,581,-15,26,1025.41,37.7,0
"2021-03-16 16:07:39+00",11.1,12.1,,37,497,-64,29,1025.62,37.6,0
"2021-03-16 16:12:39+00",11.3,13.3,,37,510,-22,11,1025.53,37.6,0
"2021-03-16 16:17:39+00",10.7,12.7,,37.3,483,-44,23,1025.55,37.7,0
"2021-03-16 16:22:39+00",13.4,14.4,,37.3,602,-21,22,1025.46,38,0
"2021-03-16 16:27:39+00",11.9,13.9,,37.4,548,-4,37,1025.21,38.2,0
"2021-03-16 16:32:39+00",11.9,13.9,,37.6,543,-63,43,1025.19,38.4,0
"2021-03-16 16:37:39+00",12.4,14.4,,37.7,550,-115,46,1025.21,38.7,0
"2021-03-16 16:42:39+00",14.3,15.3,,37.7,650,-45,19,1025.08,39.1,0
"2021-03-16 16:47:39+00",14.1,16.1,,37.8,631,-19,38,1025.02,39.1,0
"2021-03-16 16:52:39+00",13.2,16.2,,37.9,610,-55,54,1024.84,39.1,0
"2021-03-16 16:57:39+00",14.7,16.7,,37.8,688,-34,29,1024.82,38.9,0
"2021-03-16 17:02:39+00",15.8,16.8,,37.6,715,28,38,1024.94,38.9,0
"2021-03-16 17:07:39+00",12.3,14.3,,37.9,551,-61,62,1024.77,38.8,0
"2021-03-16 17:12:39+00",13.4,15.4,,37.7,590,27,45,1024.94,39,0
"2021-03-16 17:17:39+00",14.4,16.4,,37.9,643,-64,29,1024.76,39,0
"2021-03-16 17:22:39+00",13.3,15.3,,38,606,-87,21,1024.89,39,0
"2021-03-16 17:27:39+00",12.3,14.3,,37.9,533,-118,36,1025.17,38.8,0
"2021-03-16 17:32:39+00",11.8,13.8,,38,519,-20,46,1025.01,38.8,0
"2021-03-16 17:37:39+00",12.9,14.9,,38,570,-55,11,1024.89,38.7,0
"2021-03-16 17:42:39+00",12.7,13.7,,38,579,-43,22,1024.77,38.7,0
"2021-03-16 17:47:39+00",11.4,13.4,,38.1,498,-87,34,1024.86,38.8,0
"2021-03-16 17:52:39+00",11.8,14.8,,38.1,509,0,74,1024.71,38.8,0
"2021-03-16 17:57:39+00",11.8,13.8,,38.2,516,-139,24,1024.72,38.8,0
"2021-03-16 18:02:39+00",12.1,13.1,,38.2,541,32,21,1024.7,38.9,0
"2021-03-16 18:07:39+00",11.9,13.9,,38.2,525,-63,16,1024.42,38.9,0
"2021-03-16 18:12:39+00",12.2,15.2,,38.2,531,-101,23,1024.35,38.7,0
"2021-03-16 18:17:39+00",13.0,15.0,,38.2,575,-76,15,1024,38.8,0
"2021-03-16 18:22:39+00",12.9,14.9,,38.3,581,-26,24,1024.01,38.8,0
"2021-03-16 18:27:39+00",12.8,14.8,,38.4,592,-58,45,1024.07,38.9,0
"2021-03-16 18:32:39+00",11.9,14.9,,38.5,542,2,47,1024.15,38.9,0
"2021-03-16 18:37:39+00",12.0,14.0,,38.5,518,-110,8,1024.1,38.8,0
"2021-03-16 18:42:39+00",14.1,15.1,,38.5,620,-118,14,1024.02,38.9,0
"2021-03-16 18:47:39+00",13.9,15.9,,38.4,639,-35,29,1023.96,38.9,0
"2021-03-16 18:52:39+00",13.7,14.7,,38.3,611,-56,20,1023.78,38.8,0
"2021-03-16 18:57:39+00",12.2,14.2,,38.5,537,-44,18,1023.99,38.8,0
"2021-03-16 19:02:39+00",11.1,12.1,,38.6,514,-45,23,1024.04,38.9,0
"2021-03-16 19:07:39+00",10.1,12.1,,38.7,449,-50,33,1023.97,38.9,0
"2021-03-16 19:12:39+00",11.3,14.3,,38.7,498,-56,49,1023.88,39,0
"2021-03-16 19:17:39+00",13.0,15.0,,38.7,589,-32,28,1023.5,39,0
"2021-03-16 19:22:39+00",10.8,11.8,,38.8,483,-55,48,1023.45,39.2,0
"2021-03-16 19:27:39+00",13.2,15.2,,38.8,601,-52,22,1023.2,39.2,0
"2021-03-16 19:32:39+00",14.0,15.0,,38.8,616,-154,0,1023.3,39.1,0
"2021-03-16 19:37:39+00",12.8,14.8,,38.8,566,-126,9,1023.25,39.1,0
"2021-03-16 19:42:39+00",12.5,14.5,,38.9,546,-119,9,1023.2,39.1,0
"2021-03-16 19:47:39+00",13.2,15.2,,38.9,601,-38,26,1023.21,39.1,0
"2021-03-16 19:52:39+00",14.2,16.2,,38.7,635,-37,55,1023.03,38.9,0
"2021-03-16 19:57:39+00",13.3,15.3,,38.7,609,-64,19,1022.96,38.7,0
"2021-03-16 20:02:39+00",11.9,12.9,,38.9,530,-149,19,1023.03,38.7,0
"2021-03-16 20:07:39+00",11.7,12.7,,39,506,-163,12,1023.11,38.8,0
"2021-03-16 20:12:39+00",13.7,16.7,,38.9,624,-73,24,1022.8,38.8,0
"2021-03-16 20:17:39+00",13.3,14.3,,38.7,573,-176,6,1022.77,38.6,0
"2021-03-16 20:22:39+00",14.7,16.7,,38.7,648,-208,-5,1022.65,38.5,0
"2021-03-16 20:27:39+00",14.6,16.6,,38.7,629,-212,7,1022.59,38.5,0
"2021-03-16 20:32:39+00",13.8,15.8,,38.7,610,-168,7,1022.57,38.6,0
"2021-03-16 20:37:39+00",13.8,15.8,,39,572,-258,14,1022.59,38.8,0
"2021-03-16 20:42:39+00",14.7,17.7,,39.2,586,-311,1,1022.6,39.1,0
"2021-03-16 20:47:39+00",14.5,17.5,,39.3,591,-294,7,1022.58,39.3,0
"2021-03-16 20:52:39+00",13.8,15.8,,39.4,571,-240,11,1022.41,39.4,0
"2021-03-16 20:57:39+00",13.3,15.3,,39.4,520,-277,2,1022.36,39.5,0
"2021-03-16 21:02:39+00",11.2,13.2,,39.6,421,-252,15,1022.3,39.6,0
"2021-03-16 21:07:39+00",12.2,15.2,,39.6,428,-318,22,1022.34,39.6,0
"2021-03-16 21:12:39+00",15.0,17.0,,39.6,553,-376,-1,1022.34,39.5,0
"2021-03-16 21:17:39+00",12.2,14.2,,39.6,413,-357,0,1022.29,39.5,0
"2021-03-16 21:22:39+00",13.8,15.8,,39.6,486,-399,0,1022.16,39.4,0
"2021-03-16 21:27:39+00",12.3,16.3,,39.7,445,-334,16,1022.1,39.4,0
"2021-03-16 21:32:39+00",14.4,15.4,,39.5,452,-449,-7,1022.04,39.2,0
"2021-03-16 21:37:39+00",14.2,16.2,,39.3,461,-451,-7,1021.91,38.9,0
"2021-03-16 21:42:39+00",14.8,15.8,,39.2,481,-444,-12,1021.82,38.8,0
"2021-03-16 21:47:39+00",15.5,18.5,,38.9,545,-409,-4,1021.73,38.5,0
"2021-03-16 21:52:39+00",13.8,15.8,,38.9,496,-359,0,1021.67,38.4,0
"2021-03-16 21:57:39+00",15.3,18.3,,39.2,528,-423,21,1021.42,38.5,0
"2021-03-16 22:02:39+00",13.6,15.6,,39.3,522,-321,18,1021.49,38.7,0
"2021-03-16 22:07:39+00",15.4,18.4,,39.4,568,-380,9,1021.5,38.7,0
"2021-03-16 22:12:39+00",10.4,13.4,,39.4,400,-251,3,1021.55,38.7,0
"2021-03-16 22:17:39+00",10.4,12.4,,39.4,398,-240,9,1021.5,38.7,0
"2021-03-16 22:22:39+00",10.9,13.9,,39.5,415,-250,12,1021.65,38.6,0
"2021-03-16 22:27:39+00",8.7,9.7,,39.5,285,-249,1,1021.74,38.6,0
"2021-03-16 22:32:39+00",8.5,10.5,,39.4,326,-211,0,1021.72,38.5,0
"2021-03-16 22:37:39+00",9.0,10.0,,39.6,338,-216,8,1021.74,38.6,0
"2021-03-16 22:42:39+00",9.3,10.3,,39.7,379,-203,6,1021.78,38.6,0
"2021-03-16 22:47:39+00",8.6,9.6,,39.9,318,-202,6,1021.68,38.6,0
"2021-03-16 22:52:39+00",6.9,8.9,,39.9,231,-169,5,1021.66,38.7,0
"2021-03-16 22:57:39+00",7.4,8.4,,39.9,236,-211,2,1021.79,38.7,0
"2021-03-16 23:02:39+00",6.7,7.7,,40,238,-165,10,1021.85,38.6,0
"2021-03-16 23:07:39+00",6.7,7.7,,40,244,-171,3,1021.8,38.5,0
"2021-03-16 23:12:39+00",7.1,8.1,,40,277,-153,7,1021.88,38.5,0
"2021-03-16 23:17:39+00",7.9,8.9,,40,307,-161,10,1021.83,38.5,0
"2021-03-16 23:22:39+00",7.0,8.0,,40,289,-118,6,1021.81,38.4,0
"2021-03-16 23:27:39+00",7.6,8.6,,40.1,307,-136,5,1021.58,38.5,0
"2021-03-16 23:32:39+00",8.2,9.2,,40.1,333,-148,7,1021.59,38.5,0
"2021-03-16 23:37:39+00",7.6,8.6,,40.1,318,-120,6,1021.61,38.6,0
"2021-03-16 23:42:39+00",7.4,8.4,,40,303,-106,5,1021.51,38.7,0
"2021-03-16 23:47:39+00",7.3,8.3,,40,301,-108,3,1021.48,38.7,0
"2021-03-16 23:52:39+00",7.1,8.1,,40.1,284,-127,8,1021.58,38.8,0
"2021-03-16 23:57:39+00",7.8,8.8,,40.1,318,-132,8,1021.52,38.9,0
